Weather History for KEST - November, 2013

Change the Weather History Date:

Saturday, November 2, 2013

  Actual Average Record
Temperature  
Mean Temperature 43 °F 40 °F  
Max Temperature 54 °F 50 °F 76 °F (2008)
Min Temperature 31 °F 30 °F 7 °F (1951)
Degree Days  
Heating Degree Days 22 25  
Month to date heating degree days 40 49  
Since 1 July heating degree days 703 798  
Cooling Degree Days 0 0  
Month to date cooling degree days 0 0  
Year to date cooling degree days 712 593  
Moisture  
Dew Point 35 °F    
Average Humidity 77    
Maximum Humidity 100    
Minimum Humidity 54    
Precipitation  
Precipitation 0.00 in 0.06 in 1.15 in (1972)
Month to date precipitation T 0.12  
Sea Level Pressure  
Sea Level Pressure 30.06 in    
Wind  
Wind Speed 10 mph (WNW)    
Max Wind Speed 16 mph    
Max Gust Speed 25 mph    
Visibility 9 miles    
Events Snow    
T = Trace of Precipitation, MM = Missing Value Source: NWS Daily Summary

Daily Weather History Graph

Daily Weather History Graph

Search for Another Location

Airport or City:

Trip Planner

Search our weather history database for the weather conditions in past years. The results will help you decide how hot, cold, wet, or windy it might be!

Date:

Astronomy

Nov. 02, 2013 Rise Set
Actual Time 7:55 AM CDT 6:08 PM CDT
Civil Twilight 7:26 AM CDT 6:38 PM CDT
Nautical Twilight 6:52 AM CDT 7:12 PM CDT
Astronomical Twilight 6:18 AM CDT 7:45 PM CDT
Moon 6:52 AM CDT (11/2) 5:41 PM CDT (11/2)
Length of Visible Light 11h 12m
Length of Day
10h 12m
Waning Crescent, 1% of the Moon is Illuminated
Nov 2
Waning Crescent
Nov 3
New
Nov 9
First Quarter
Nov 17
Full
Nov 25
Last Quarter

Hourly Weather History & Observations

Time (CDT) Temp. Windchill Dew Point Humidity Pressure Visibility Wind Dir Wind Speed Gust Speed Precip Events Conditions
12:52 AM 42.1 °F 34.5 °F 39.0 °F 89% 29.93 in 9.0 mi NNW 15.0 mph - N/A   Overcast
1:52 AM 42.1 °F 35.2 °F 39.0 °F 89% 29.95 in 9.0 mi NW 12.7 mph - N/A   Overcast
2:52 AM 42.1 °F 34.9 °F 39.0 °F 89% 29.97 in 9.0 mi NW 13.8 mph - N/A   Overcast
3:52 AM 41.0 °F 33.9 °F 37.9 °F 89% 29.98 in 9.0 mi NW 12.7 mph - N/A   Overcast
4:52 AM 39.9 °F 32.1 °F 37.9 °F 93% 30.00 in 9.0 mi NW 13.8 mph - N/A   Overcast
5:52 AM 37.0 °F 30.4 °F 35.1 °F 93% 30.03 in 8.0 mi NW 9.2 mph - N/A   Clear
6:52 AM 34.0 °F 26.6 °F 33.1 °F 96% 30.06 in 6.0 mi WNW 9.2 mph - N/A   Clear
7:52 AM 30.9 °F 23.5 °F 30.9 °F 100% 30.08 in 7.0 mi WNW 8.1 mph - N/A   Clear
8:52 AM 35.1 °F 27.9 °F 34.0 °F 96% 30.09 in 8.0 mi WNW 9.2 mph - N/A   Clear
9:52 AM 39.0 °F 31.8 °F 36.0 °F 89% 30.11 in 10.0 mi NW 11.5 mph - N/A   Clear
10:52 AM 42.1 °F 35.2 °F 36.0 °F 79% 30.11 in 10.0 mi NW 12.7 mph - N/A   Clear
11:52 AM 46.0 °F 40.2 °F 37.0 °F 71% 30.12 in 10.0 mi WNW 12.7 mph - N/A   Clear
12:52 PM 48.9 °F - 36.0 °F 61% 30.11 in 10.0 mi NW 13.8 mph 25.3 mph N/A   Clear
1:52 PM 50.0 °F - 35.1 °F 57% 30.10 in 10.0 mi NW 11.5 mph 20.7 mph N/A   Partly Cloudy
2:52 PM 51.1 °F - 35.1 °F 54% 30.09 in 10.0 mi NW 13.8 mph - N/A   Mostly Cloudy
3:52 PM 52.0 °F - 35.1 °F 53% 30.09 in 10.0 mi NW 8.1 mph - N/A   Mostly Cloudy
4:52 PM 52.0 °F - 35.1 °F 53% 30.09 in 10.0 mi WNW 9.2 mph - N/A   Partly Cloudy
5:52 PM 48.0 °F - 34.0 °F 58% 30.09 in 10.0 mi West 5.8 mph - N/A   Partly Cloudy
6:52 PM 42.1 °F 39.2 °F 32.0 °F 67% 30.09 in 10.0 mi SSW 4.6 mph - N/A   Clear
7:52 PM 39.9 °F 35.1 °F 32.0 °F 73% 30.10 in 10.0 mi South 6.9 mph - N/A   Clear
8:52 PM 39.0 °F 34.0 °F 32.0 °F 76% 30.10 in 9.0 mi South 6.9 mph - 0.00 in   Clear
9:52 PM 34.0 °F 29.8 °F 30.0 °F 85% 30.09 in 10.0 mi SSE 4.6 mph - N/A   Clear
10:52 PM 34.0 °F 27.2 °F 30.9 °F 89% 30.09 in 10.0 mi South 8.1 mph - N/A   Clear
11:52 PM 34.0 °F 28.0 °F 30.9 °F 89% 30.09 in 10.0 mi South 6.9 mph - 0.00 in Snow Light Snow